Find Starlink 3655

NORAD ID: 51983 Int'l Des: 2022-025 Owner: SPXS Country: US Constellation: starlink operational
LEOCIRCULAR

Current View

Loading 3D Globe...

About Starlink 3655

Description loading...

Upcoming Passes

Passes for default location (London). Set your location on the main map for personalized predictions.

Altitude History

Loading altitude history...

Two-Line Element Set

1 51983U 22025AD 26146.11253059 -.00000921 00000-0 -39739-4 0 9991
2 51983 53.2121 51.5611 0001547 101.5034 258.6132 15.08844940232740
Epoch: May 26, 2026 • Age: 14 hours

Current Status

Altitude 540.1 km
Velocity 7.59 km/s
Sub-Earth Point 7.11°N, 85.79°W
Launch Date Mar 9, 2022
Age 4.2 years
Type internet

Technical Details

Classification Payload
Mass 297.00 kg
Dry Mass 275.00 kg
Total Mass 297.00 kg
Length 0.20 m
Diameter 2.80 m
Span 9.00 m
Shape Box + pan
Manufacturer SPXS
Bus Type Starlink
Phase Status In Orbit
Owner/State SPXS/US

Most Searched